WICT2: Wichita River At Wichita Falls, TX

                                SHEF ID:       WICT2     Wichita Rv at Wichita Falls, TX
STATION TYPE:
Regulating: Stage = 18.50, Flow = 5482

PRECIP STAGE RIV-FLOW WTR-TEMP CONDUCT BAT-LOAD
in ft cfs F umho/cm volt
Ccp-Rev Ccp-Rev Ccp-Rev Ccp-Rev Ccp-Rev Ccp-Rev
(America/Chicago)
03/19 00:00 ---- 2.10 19 60.31 7128 12.08
03/19 01:00 ---- 2.11 19 60.06 7094 12.01
03/19 02:00 ---- 2.10 19 59.88 7122 12.04
03/19 03:00 ---- 2.10 19 59.67 7161 12.02
03/19 04:00 ---- 2.11 19 59.41 7176 12.00
03/19 05:00 ---- 2.10 19 59.13 7193 11.97
03/19 06:00 ---- 2.09 18 58.87 7221 11.94
03/19 07:00 ---- 2.09 18 58.60 7213 11.92
03/19 08:00 ---- 2.09 18 58.28 7196 11.90
03/19 09:00 ---- 2.07 17 58.01 7172 12.04
03/19 10:00 ---- 2.08 18 58.12 7166 12.81
03/19 11:00 ---- 2.07 17 58.87 7187 12.97
03/19 12:00 ---- 2.06 16 60.10 7235 12.65
03/19 13:00 ---- 2.06 16 61.75 7293 12.54
03/19 14:00 ---- 2.06 16 63.66 7347 12.49
03/19 15:00 ---- 2.05 16 65.59 7378 12.44
03/19 16:00 ---- 2.07 17 67.26 7405 12.38
03/19 17:00 ---- 2.07 17 68.50 7320 12.30
03/19 18:00 ---- 2.08 18 69.21 7304 12.22
03/19 19:00 ---- 2.07 17 69.17 7446 12.13
03/19 20:00 ---- 2.08 18 68.79 7424 12.10
03/19 21:00 ---- 2.09 18 68.25 7433 12.11
03/19 22:00 ---- 2.08 18 67.55 7358 12.09
03/19 23:00 ---- 2.09 18 66.94 7348 12.02
Data processed at Fri 20Mar2026 04:58 GMT

NOTICE: If you are parsing this page

Please convert to using our Data API. Starting early 2026 we will be migrating to: https://water.usace.army.mil with modern pages rendered in JavaScript. When this migration completes you will no longer be able to scrape this page! CWMSDataAPI (CDA)

Timeseries IDs (TSIDs)

TSIDs used from left to right in the data table
WFAL.Precip-Inc.Total.1Hour.1Hour.Ccp-Rev
WFAL.Stage.Inst.1Hour.0.Ccp-Rev
WFAL.Flow.Inst.1Hour.0.Ccp-Rev
WFAL.Temp-Water.Inst.1Hour.0.Ccp-Rev
WFAL.Cond-Water.Inst.1Hour.0.Ccp-Rev
WFAL.Volt-Battery Load.Inst.1Hour.0.Ccp-Rev

                            

All information presented herein is the property of the government of the United States of America and may be revised or deleted at any time without prior notice. Dissemination of this information without the expressed written consent of the Public Affairs Office, Tulsa District U.S. Army Corps of Engineers is strictly prohibited. These data are gathered electronically and, as presented, have NOT undergone any form of quality control. These data are NOT guaranteed to be valid or correct.